| time (UTC) | temp F | wind direction | speed knots | gust knots | rain 1hr in | rain 24hr in | rain mn in | humidity % | barometer mb |
| 20260905135715 | 82 | 315 | 3.5 | 4.3 | 0.00 | 0.00 | 0.00 | 82 | 1008.1 |
| 20260905135211 | 82 | 334 | 3.5 | 4.3 | 0.00 | 0.00 | 0.00 | 82 | 1008.3 |
| 20260905134710 | 82 | 320 | 2.6 | 4.3 | 0.00 | 0.00 | 0.00 | 83 | 1008.1 |
| 20260905134210 | 81 | 349 | 1.7 | 2.6 | 0.00 | 0.00 | 0.00 | 84 | 1008.2 |
| 20260905133705 | 80 | 314 | 3.5 | 5.2 | 0.00 | 0.00 | 0.00 | 84 | 1008.4 |
| 20260905133200 | 80 | 27 | 0.9 | 2.6 | 0.00 | 0.00 | 0.00 | 84 | 1008.5 |
| 20260905132659 | 80 | 30 | 2.6 | 2.6 | 0.00 | 0.00 | 0.00 | 85 | 1008.6 |
| 20260905132154 | 79 | 11 | 0.9 | 1.7 | 0.00 | 0.00 | 0.00 | 86 | 1008.8 |
| 20260905131649 | 79 | 6 | 0.9 | 2.6 | 0.00 | 0.00 | 0.00 | 86 | 1008.7 |
| 20260905131150 | 78 | 21 | 2.6 | 2.6 | 0.00 | 0.00 | 0.00 | 87 | 1008.7 |
| 20260905130644 | 78 | 356 | 2.6 | 4.3 | 0.00 | 0.00 | 0.00 | 87 | 1008.6 |
| 20260905130144 | 77 | 308 | 3.5 | 4.3 | 0.00 | 0.00 | 0.00 | 88 | 1008.8 |
| 20260905125638 | 77 | 8 | 1.7 | 2.6 | 0.00 | 0.00 | 0.00 | 89 | 1008.6 |
| 20260905125134 | 77 | 352 | 2.6 | 2.6 | 0.00 | 0.00 | 0.00 | 90 | 1008.7 |
| 20260905124630 | 76 | 21 | 2.6 | 4.3 | 0.00 | 0.00 | 0.00 | 90 | 1008.7 |
| 20260905124126 | 76 | 321 | 2.6 | 4.3 | 0.00 | 0.00 | 0.00 | 91 | 1008.6 |
| 20260905123621 | 76 | 30 | 1.7 | 2.6 | 0.00 | 0.00 | 0.00 | 91 | 1008.6 |
| 20260905123118 | 76 | 350 | 1.7 | 2.6 | 0.00 | 0.00 | 0.00 | 91 | 1008.5 |
| 20260905122613 | 76 | 5 | 2.6 | 4.3 | 0.00 | 0.00 | 0.00 | 91 | 1008.6 |
| 20260905122113 | 76 | 348 | 1.7 | 2.6 | 0.00 | 0.00 | 0.00 | 91 | 1008.5 |
| 20260905121607 | 76 | 358 | 2.6 | 2.6 | 0.00 | 0.00 | 0.00 | 92 | 1008.5 |
| 20260905121103 | 75 | 340 | 2.6 | 4.3 | 0.00 | 0.00 | 0.00 | 91 | 1008.4 |
| 20260905120602 | 75 | 39 | 1.7 | 1.7 | 0.00 | 0.00 | 0.00 | 92 | 1008.2 |
| 20260905120057 | 75 | 344 | 2.6 | 2.6 | 0.00 | 0.00 | 0.00 | 92 | 1008.3 |
| 20260905115556 | 75 | 9 | 1.7 | 2.6 | 0.00 | 0.00 | 0.00 | 92 | 1008.5 |
| 20260905115051 | 75 | 0 | 2.6 | 2.6 | 0.00 | 0.00 | 0.00 | 92 | 1008.3 |
| 20260905114550 | 75 | 355 | 1.7 | 1.7 | 0.00 | 0.00 | 0.00 | 92 | 1008.2 |
| 20260905114049 | 75 | 359 | 0.9 | 2.6 | 0.00 | 0.00 | 0.00 | 92 | 1008.3 |
| 20260905113544 | 75 | 350 | 1.7 | 2.6 | 0.00 | 0.00 | 0.00 | 92 | 1008.2 |
| 20260905113039 | 75 | 356 | 2.6 | 2.6 | 0.00 | 0.00 | 0.00 | 92 | 1008.3 |
| 20260905112535 | 75 | 27 | 0.9 | 1.7 | 0.00 | 0.00 | 0.00 | 92 | 1008.2 |
| 20260905112030 | 75 | 10 | 1.7 | 2.6 | 0.00 | 0.00 | 0.00 | 92 | 1008.2 |
| 20260905111525 | 75 | 348 | 2.6 | 2.6 | 0.00 | 0.00 | 0.00 | 92 | 1008.1 |
| 20260905111024 | 75 | 30 | 0.0 | 0.9 | 0.00 | 0.00 | 0.00 | 92 | 1008.0 |
| 20260905110523 | 75 | 32 | 0.0 | 1.7 | 0.00 | 0.00 | 0.00 | 92 | 1007.8 |
| 20260905110019 | 75 | 39 | 0.0 | 0.9 | 0.00 | 0.00 | 0.00 | 92 | 1007.9 |
| 20260905105513 | 75 | 3 | 1.7 | 1.7 | 0.00 | 0.00 | 0.00 | 92 | 1007.9 |
| 20260905105013 | 75 | 315 | 1.7 | 2.6 | 0.00 | 0.00 | 0.00 | 92 | 1007.8 |
| 20260905104509 | 75 | 34 | 0.0 | 0.9 | 0.00 | 0.00 | 0.00 | 91 | 1007.8 |
| 20260905104008 | 75 | 33 | 0.0 | 0.0 | 0.00 | 0.00 | 0.00 | 91 | 1007.7 |
| 20260905103503 | 75 | 34 | 0.0 | 0.9 | 0.00 | 0.00 | 0.00 | 91 | 1007.7 |
| 20260905102959 | 75 | 47 | 0.9 | 0.9 | 0.00 | 0.00 | 0.00 | 91 | 1007.5 |
| 20260905102455 | 75 | 33 | 0.0 | 0.9 | 0.00 | 0.00 | 0.00 | 91 | 1007.5 |
| 20260905101950 | 75 | 47 | 0.0 | 0.0 | 0.00 | 0.00 | 0.00 | 90 | 1007.7 |
| 20260905101449 | 75 | 47 | 0.0 | 0.0 | 0.00 | 0.00 | 0.00 | 90 | 1007.5 |
| 20260905100948 | 75 | 46 | 0.0 | 0.9 | 0.00 | 0.00 | 0.00 | 90 | 1007.5 |
| 20260905100444 | 75 | 45 | 0.0 | 0.0 | 0.00 | 0.00 | 0.00 | 90 | 1007.6 |
| 20260905095943 | 75 | 44 | 0.0 | 0.0 | 0.00 | 0.00 | 0.00 | 90 | 1007.4 |
| 20260905095438 | 75 | 44 | 0.0 | 0.0 | 0.00 | 0.00 | 0.00 | 90 | 1007.5 |
| 20260905094933 | 75 | 43 | 0.0 | 0.0 | 0.00 | 0.00 | 0.00 | 90 | 1007.5 |
| 20260905094429 | 75 | 35 | 0.0 | 0.0 | 0.00 | 0.00 | 0.00 | 90 | 1007.3 |
| 20260905093927 | 75 | 41 | 0.0 | 0.9 | 0.00 | 0.00 | 0.00 | 90 | 1007.5 |
| 20260905093423 | 76 | 36 | 0.0 | 0.9 | 0.00 | 0.00 | 0.00 | 90 | 1007.4 |
| 20260905092918 | 76 | 35 | 0.9 | 0.9 | 0.00 | 0.00 | 0.00 | 90 | 1007.5 |
| 20260905092413 | 76 | 5 | 1.7 | 1.7 | 0.00 | 0.00 | 0.00 | 90 | 1007.7 |
| 20260905091908 | 76 | 35 | 0.9 | 1.7 | 0.00 | 0.00 | 0.00 | 90 | 1007.6 |
| 20260905091403 | 76 | 29 | 0.9 | 0.9 | 0.00 | 0.00 | 0.00 | 90 | 1007.5 |
| 20260905090902 | 76 | 46 | 0.0 | 0.9 | 0.00 | 0.00 | 0.00 | 89 | 1007.7 |
| 20260905090358 | 76 | 44 | 0.0 | 0.9 | 0.00 | 0.00 | 0.00 | 89 | 1007.6 |
| 20260905085856 | 76 | 46 | 0.9 | 0.9 | 0.00 | 0.00 | 0.00 | 89 | 1007.7 |
| 20260905085351 | 76 | 45 | 0.0 | 0.0 | 0.00 | 0.00 | 0.00 | 89 | 1007.6 |
| 20260905084848 | 76 | 44 | 0.0 | 0.0 | 0.00 | 0.00 | 0.00 | 89 | 1007.8 |
| 20260905084346 | 76 | 43 | 0.0 | 0.0 | 0.00 | 0.00 | 0.00 | 89 | 1007.7 |
| 20260905083841 | 76 | 43 | 0.0 | 0.0 | 0.00 | 0.00 | 0.00 | 89 | 1007.7 |
| 20260905083337 | 77 | 37 | 0.0 | 0.0 | 0.00 | 0.00 | 0.00 | 89 | 1007.7 |
| 20260905082832 | 77 | 44 | 0.9 | 1.7 | 0.00 | 0.00 | 0.00 | 89 | 1007.6 |
| 20260905082328 | 77 | 30 | 0.0 | 0.9 | 0.00 | 0.00 | 0.00 | 89 | 1007.8 |
| 20260905081823 | 77 | 24 | 0.9 | 1.7 | 0.00 | 0.00 | 0.00 | 89 | 1007.8 |
| 20260905081318 | 77 | 22 | 0.9 | 1.7 | 0.00 | 0.00 | 0.00 | 89 | 1007.6 |
| 20260905080817 | 77 | 18 | 0.9 | 2.6 | 0.00 | 0.00 | 0.00 | 88 | 1007.4 |
| 20260905080312 | 77 | 12 | 1.7 | 1.7 | 0.00 | 0.00 | 0.00 | 89 | 1007.5 |
| 20260905075811 | 77 | 34 | 0.0 | 0.9 | 0.00 | 0.00 | 0.00 | 88 | 1007.8 |
| 20260905075310 | 77 | 42 | 0.0 | 0.9 | 0.00 | 0.00 | 0.00 | 88 | 1007.7 |
| 20260905074809 | 77 | 37 | 0.0 | 0.9 | 0.00 | 0.00 | 0.00 | 88 | 1007.8 |
| 20260905074306 | 78 | 37 | 0.0 | 0.9 | 0.00 | 0.00 | 0.00 | 88 | 1007.7 |
| 20260905073801 | 78 | 19 | 0.9 | 1.7 | 0.00 | 0.00 | 0.00 | 88 | 1007.6 |
| 20260905073255 | 78 | 29 | 0.9 | 0.9 | 0.00 | 0.00 | 0.00 | 87 | 1007.6 |
| 20260905072750 | 78 | 30 | 0.9 | 1.7 | 0.00 | 0.00 | 0.00 | 87 | 1007.7 |
| 20260905072245 | 78 | 27 | 0.9 | 1.7 | 0.00 | 0.00 | 0.00 | 87 | 1007.5 |
| 20260905071742 | 78 | 11 | 1.7 | 1.7 | 0.00 | 0.00 | 0.00 | 87 | 1007.5 |
| 20260905071237 | 78 | 17 | 1.7 | 1.7 | 0.00 | 0.00 | 0.00 | 87 | 1007.6 |
| 20260905070732 | 78 | 30 | 0.9 | 1.7 | 0.00 | 0.00 | 0.00 | 87 | 1007.6 |
| 20260905070229 | 79 | 340 | 1.7 | 1.7 | 0.00 | 0.00 | 0.00 | 86 | 1007.6 |
| 20260905065727 | 78 | 349 | 2.6 | 2.6 | 0.00 | 0.00 | 0.00 | 87 | 1007.8 |
| 20260905065221 | 78 | 34 | 0.0 | 0.9 | 0.00 | 0.00 | 0.00 | 86 | 1007.7 |
| 20260905064716 | 78 | 39 | 0.0 | 0.0 | 0.00 | 0.00 | 0.00 | 86 | 1007.8 |
| 20260905064212 | 79 | 40 | 0.9 | 1.7 | 0.00 | 0.00 | 0.00 | 86 | 1007.7 |
| 20260905063710 | 79 | 18 | 0.9 | 1.7 | 0.00 | 0.00 | 0.00 | 86 | 1007.8 |
| 20260905063207 | 79 | 343 | 1.7 | 1.7 | 0.00 | 0.00 | 0.00 | 86 | 1007.8 |
| 20260905062703 | 78 | 33 | 0.0 | 0.9 | 0.00 | 0.00 | 0.00 | 86 | 1007.9 |
| 20260905062202 | 78 | 32 | 0.0 | 0.9 | 0.00 | 0.00 | 0.00 | 86 | 1007.9 |
| 20260905061656 | 79 | 45 | 0.9 | 0.9 | 0.00 | 0.00 | 0.00 | 85 | 1007.8 |
| 20260905061156 | 78 | 47 | 0.0 | 0.0 | 0.00 | 0.00 | 0.00 | 85 | 1008.0 |
| 20260905060652 | 78 | 47 | 0.0 | 0.0 | 0.00 | 0.00 | 0.00 | 85 | 1008.3 |
| 20260905060148 | 79 | 47 | 0.0 | 0.0 | 0.00 | 0.00 | 0.00 | 85 | 1008.1 |
| 20260905055646 | 79 | 47 | 0.0 | 0.9 | 0.00 | 0.00 | 0.00 | 84 | 1008.3 |
| 20260905055142 | 79 | 47 | 0.0 | 0.0 | 0.00 | 0.00 | 0.00 | 84 | 1008.4 |
| 20260905054637 | 79 | 47 | 0.0 | 0.0 | 0.00 | 0.00 | 0.00 | 84 | 1008.3 |
| 20260905054133 | 79 | 47 | 0.0 | 0.0 | 0.00 | 0.00 | 0.00 | 84 | 1008.4 |
| 20260905053632 | 79 | 47 | 0.0 | 0.0 | 0.00 | 0.00 | 0.00 | 84 | 1008.5 |
| 20260905053128 | 79 | 47 | 0.0 | 0.0 | 0.00 | 0.00 | 0.00 | 84 | 1008.7 |
| 20260905052627 | 79 | 47 | 0.0 | 0.0 | 0.00 | 0.00 | 0.00 | 84 | 1008.5 |
| 20260905052122 | 79 | 47 | 0.0 | 0.0 | 0.00 | 0.00 | 0.00 | 83 | 1008.3 |
| 20260905051617 | 79 | 47 | 0.0 | 0.0 | 0.00 | 0.00 | 0.00 | 83 | 1008.8 |
| 20260905051114 | 79 | 47 | 0.0 | 0.0 | 0.00 | 0.00 | 0.00 | 83 | 1008.5 |
| 20260905050609 | 79 | 47 | 0.0 | 0.0 | 0.00 | 0.00 | 0.00 | 83 | 1008.7 |
| 20260905045601 | 80 | 48 | 0.0 | 0.0 | 0.00 | 0.00 | 0.00 | 83 | 1008.4 |
| 20260905045056 | 79 | 47 | 0.0 | 0.0 | 0.00 | 0.00 | 0.00 | 82 | 1008.7 |
| 20260905044555 | 79 | 47 | 0.0 | 0.0 | 0.00 | 0.00 | 0.00 | 82 | 1008.7 |
| 20260905044050 | 80 | 47 | 0.0 | 0.0 | 0.00 | 0.00 | 0.00 | 82 | 1008.7 |
| 20260905043549 | 80 | 47 | 0.0 | 0.0 | 0.00 | 0.00 | 0.00 | 82 | 1008.8 |
| 20260905043045 | 80 | 47 | 0.0 | 0.0 | 0.00 | 0.00 | 0.00 | 81 | 1008.9 |
| 20260905042543 | 80 | 47 | 0.0 | 0.0 | 0.00 | 0.00 | 0.00 | 81 | 1008.9 |
| 20260905042039 | 80 | 47 | 0.0 | 0.9 | 0.00 | 0.00 | 0.00 | 81 | 1008.8 |
| 20260905041534 | 80 | 47 | 0.0 | 0.0 | 0.00 | 0.00 | 0.00 | 81 | 1008.8 |
| 20260905041030 | 80 | 47 | 0.0 | 0.0 | 0.00 | 0.00 | 0.00 | 81 | 1008.7 |
| 20260905040529 | 80 | 47 | 0.0 | 0.0 | 0.00 | 0.00 | 0.00 | 81 | 1008.6 |
| 20260905040028 | 80 | 47 | 0.0 | 0.0 | 0.00 | 0.00 | 0.00 | 81 | 1008.7 |
| 20260905035523 | 80 | 47 | 0.0 | 0.0 | 0.00 | 0.00 | 0.00 | 80 | 1008.8 |
| 20260905035020 | 80 | 47 | 0.0 | 0.0 | 0.00 | 0.00 | 0.00 | 79 | 1008.9 |
| 20260905034516 | 80 | 47 | 0.0 | 0.0 | 0.00 | 0.00 | 0.00 | 79 | 1009.0 |
| 20260905034015 | 80 | 47 | 0.0 | 0.9 | 0.00 | 0.00 | 0.00 | 79 | 1008.9 |
| 20260905033509 | 81 | 47 | 0.0 | 0.0 | 0.00 | 0.00 | 0.00 | 78 | 1009.0 |
| 20260905033005 | 81 | 47 | 0.0 | 0.0 | 0.00 | 0.00 | 0.00 | 78 | 1009.1 |
| 20260905032500 | 81 | 47 | 0.0 | 0.0 | 0.00 | 0.00 | 0.00 | 77 | 1008.7 |
| 20260905031954 | 81 | 47 | 0.0 | 0.0 | 0.00 | 0.00 | 0.00 | 76 | 1009.0 |
| 20260905031450 | 82 | 47 | 0.0 | 0.0 | 0.00 | 0.00 | 0.00 | 76 | 1009.0 |
| 20260905030945 | 82 | 47 | 0.0 | 0.0 | 0.00 | 0.00 | 0.00 | 76 | 1009.1 |
| 20260905030440 | 82 | 47 | 0.0 | 0.9 | 0.00 | 0.00 | 0.00 | 76 | 1008.9 |
| 20260905025939 | 82 | 47 | 0.0 | 0.0 | 0.00 | 0.00 | 0.00 | 76 | 1009.1 |
| 20260905025435 | 82 | 47 | 0.0 | 0.0 | 0.00 | 0.00 | 0.00 | 75 | 1008.9 |
| 20260905024932 | 82 | 47 | 0.0 | 0.0 | 0.00 | 0.00 | 0.00 | 75 | 1009.0 |
| 20260905024431 | 82 | 47 | 0.0 | 0.9 | 0.00 | 0.00 | 0.00 | 75 | 1009.3 |
| 20260905023927 | 82 | 47 | 0.0 | 0.9 | 0.00 | 0.00 | 0.00 | 75 | 1009.0 |
| 20260905023422 | 82 | 47 | 0.0 | 0.0 | 0.00 | 0.00 | 0.00 | 75 | 1009.1 |
| 20260905022921 | 82 | 47 | 0.0 | 0.0 | 0.00 | 0.00 | 0.00 | 75 | 1009.0 |
| 20260905022417 | 82 | 47 | 0.0 | 0.9 | 0.00 | 0.00 | 0.00 | 75 | 1009.1 |
| 20260905021911 | 81 | 47 | 0.0 | 0.9 | 0.00 | 0.00 | 0.00 | 76 | 1009.1 |
| 20260905021406 | 80 | 46 | 0.0 | 0.0 | 0.00 | 0.00 | 0.00 | 78 | 1008.7 |
| 20260905020901 | 81 | 46 | 0.0 | 0.0 | 0.00 | 0.00 | 0.00 | 81 | 1008.8 |
| 20260905020400 | 81 | 46 | 0.0 | 0.0 | 0.00 | 0.00 | 0.00 | 81 | 1008.9 |
| 20260905015855 | 82 | 45 | 0.0 | 0.0 | 0.00 | 0.00 | 0.00 | 82 | 1008.7 |
| 20260905015354 | 82 | 45 | 0.0 | 0.0 | 0.00 | 0.00 | 0.00 | 82 | 1008.8 |
| 20260905014853 | 82 | 45 | 0.0 | 0.0 | 0.00 | 0.00 | 0.00 | 82 | 1009.2 |
| 20260905014349 | 82 | 45 | 0.0 | 0.0 | 0.00 | 0.00 | 0.00 | 82 | 1008.7 |
| 20260905013844 | 82 | 45 | 0.0 | 0.0 | 0.00 | 0.00 | 0.00 | 81 | 1008.8 |
| 20260905013340 | 82 | 45 | 0.0 | 0.0 | 0.00 | 0.00 | 0.00 | 81 | 1008.7 |
| 20260905012835 | 82 | 46 | 0.0 | 0.0 | 0.00 | 0.00 | 0.00 | 81 | 1008.7 |
| 20260905012330 | 83 | 46 | 0.0 | 0.0 | 0.00 | 0.00 | 0.00 | 81 | 1008.7 |
| 20260905011827 | 83 | 46 | 0.0 | 0.9 | 0.00 | 0.00 | 0.00 | 81 | 1008.7 |
| 20260905011328 | 83 | 45 | 0.0 | 0.0 | 0.00 | 0.00 | 0.00 | 80 | 1008.6 |
| 20260905010823 | 83 | 45 | 0.0 | 0.0 | 0.00 | 0.00 | 0.00 | 79 | 1008.6 |
| 20260905010318 | 84 | 45 | 0.0 | 0.0 | 0.00 | 0.00 | 0.00 | 79 | 1008.5 |
| 20260905005814 | 84 | 45 | 0.0 | 0.0 | 0.00 | 0.00 | 0.00 | 79 | 1008.5 |
| 20260905005309 | 84 | 45 | 0.9 | 0.9 | 0.00 | 0.00 | 0.00 | 78 | 1008.5 |
| 20260905004804 | 85 | 45 | 0.0 | 0.0 | 0.00 | 0.00 | 0.00 | 77 | 1008.8 |
| 20260905004259 | 85 | 45 | 0.0 | 0.0 | 0.00 | 0.00 | 0.00 | 76 | 1008.2 |
| 20260905003754 | 85 | 45 | 0.0 | 0.0 | 0.00 | 0.00 | 0.00 | 75 | 1008.4 |
| 20260905003250 | 86 | 45 | 0.0 | 0.0 | 0.00 | 0.00 | 0.00 | 74 | 1008.2 |
| 20260905002746 | 86 | 45 | 0.0 | 0.0 | 0.00 | 0.00 | 0.00 | 72 | 1008.3 |
| 20260905002245 | 87 | 45 | 0.0 | 0.0 | 0.00 | 0.00 | 0.00 | 71 | 1008.2 |
| 20260905001740 | 87 | 45 | 0.0 | 0.0 | 0.00 | 0.00 | 0.00 | 69 | 1007.9 |
| 20260905001239 | 87 | 45 | 0.0 | 0.0 | 0.00 | 0.00 | 0.00 | 68 | 1008.2 |
| 20260905000735 | 87 | 45 | 0.0 | 0.0 | 0.00 | 0.00 | 0.00 | 67 | 1008.0 |
| 20260905000233 | 88 | 45 | 0.0 | 0.0 | 0.00 | 0.00 | 0.00 | 66 | 1007.9 |
| 20260904235726 | 88 | 45 | 0.0 | 0.0 | 0.00 | 0.00 | 0.00 | 61 | 1007.9 |
| 20260904235220 | 88 | 46 | 0.0 | 0.0 | 0.00 | 0.00 | 0.00 | 58 | 1007.9 |
| 20260904234715 | 89 | 46 | 0.0 | 0.0 | 0.00 | 0.00 | 0.00 | 57 | 1007.7 |
| 20260904234211 | 90 | 46 | 0.0 | 0.0 | 0.00 | 0.00 | 0.00 | 56 | 1007.9 |
| 20260904233706 | 90 | 46 | 0.0 | 0.0 | 0.00 | 0.00 | 0.00 | 55 | 1007.9 |
| 20260904233202 | 91 | 46 | 0.0 | 0.0 | 0.00 | 0.00 | 0.00 | 55 | 1007.7 |
| 20260904232659 | 91 | 46 | 0.0 | 0.0 | 0.00 | 0.00 | 0.00 | 55 | 1007.8 |
| 20260904232155 | 91 | 46 | 0.0 | 0.0 | 0.00 | 0.00 | 0.00 | 54 | 1007.6 |
| 20260904231650 | 92 | 46 | 0.0 | 0.0 | 0.00 | 0.00 | 0.00 | 55 | 1007.8 |
| 20260904231145 | 92 | 46 | 0.0 | 0.0 | 0.00 | 0.00 | 0.00 | 54 | 1007.6 |
| 20260904230644 | 93 | 46 | 0.0 | 0.0 | 0.00 | 0.00 | 0.00 | 54 | 1007.8 |
| 20260904230140 | 93 | 46 | 0.0 | 0.0 | 0.00 | 0.00 | 0.00 | 53 | 1007.9 |
| 20260904225638 | 93 | 46 | 0.0 | 0.0 | 0.00 | 0.00 | 0.00 | 53 | 1007.8 |
| 20260904225133 | 93 | 46 | 0.0 | 0.0 | 0.00 | 0.00 | 0.00 | 52 | 1007.7 |
| 20260904224627 | 94 | 46 | 0.0 | 0.0 | 0.00 | 0.00 | 0.00 | 52 | 1007.7 |
| 20260904224122 | 94 | 46 | 0.0 | 0.9 | 0.00 | 0.00 | 0.00 | 51 | 1007.7 |
| 20260904223621 | 94 | 46 | 0.0 | 0.9 | 0.00 | 0.00 | 0.00 | 50 | 1007.5 |
| 20260904223116 | 94 | 47 | 0.0 | 0.0 | 0.00 | 0.00 | 0.00 | 52 | 1007.7 |
| 20260904222613 | 94 | 47 | 0.0 | 0.0 | 0.00 | 0.00 | 0.00 | 51 | 1007.4 |
| 20260904222108 | 94 | 47 | 0.0 | 0.0 | 0.00 | 0.00 | 0.00 | 50 | 1007.6 |
| 20260904221608 | 94 | 47 | 0.0 | 0.9 | 0.00 | 0.00 | 0.00 | 49 | 1007.7 |
| 20260904221108 | 94 | 47 | 0.0 | 0.9 | 0.00 | 0.00 | 0.00 | 49 | 1007.3 |
| 20260904220602 | 94 | 47 | 0.0 | 0.9 | 0.00 | 0.00 | 0.00 | 49 | 1007.5 |
| 20260904220058 | 94 | 46 | 0.0 | 0.9 | 0.00 | 0.00 | 0.00 | 50 | 1007.5 |
| 20260904215552 | 94 | 47 | 0.9 | 0.9 | 0.00 | 0.00 | 0.00 | 49 | 1007.7 |
| 20260904215048 | 94 | 49 | 0.0 | 0.0 | 0.00 | 0.00 | 0.00 | 51 | 1007.6 |
| 20260904214543 | 94 | 49 | 0.0 | 0.0 | 0.00 | 0.00 | 0.00 | 50 | 1007.5 |
| 20260904214038 | 94 | 50 | 0.0 | 1.7 | 0.00 | 0.00 | 0.00 | 50 | 1007.7 |
| 20260904213536 | 94 | 44 | 0.0 | 1.7 | 0.00 | 0.00 | 0.00 | 50 | 1007.9 |
| 20260904213034 | 94 | 60 | 0.9 | 1.7 | 0.00 | 0.00 | 0.00 | 50 | 1007.7 |
| 20260904212532 | 94 | 42 | 0.0 | 0.9 | 0.00 | 0.00 | 0.00 | 51 | 1007.8 |
| 20260904212028 | 94 | 50 | 0.9 | 0.9 | 0.00 | 0.00 | 0.00 | 50 | 1007.8 |
| 20260904211528 | 94 | 50 | 0.0 | 0.9 | 0.00 | 0.00 | 0.00 | 50 | 1007.6 |
| 20260904211023 | 94 | 51 | 0.0 | 0.9 | 0.00 | 0.00 | 0.00 | 51 | 1007.7 |
| 20260904210523 | 94 | 46 | 0.0 | 0.9 | 0.00 | 0.00 | 0.00 | 51 | 1007.8 |
| 20260904210019 | 95 | 34 | 0.9 | 0.9 | 0.00 | 0.00 | 0.00 | 51 | 1007.7 |
| 20260904205514 | 94 | 36 | 0.0 | 0.9 | 0.00 | 0.00 | 0.00 | 51 | 1007.7 |
| 20260904205011 | 95 | 42 | 0.0 | 1.7 | 0.00 | 0.00 | 0.00 | 50 | 1007.9 |
| 20260904204506 | 95 | 45 | 0.0 | 0.9 | 0.00 | 0.00 | 0.00 | 51 | 1008.1 |
| 20260904204002 | 94 | 49 | 0.9 | 1.7 | 0.00 | 0.00 | 0.00 | 51 | 1008.0 |
| 20260904203458 | 95 | 40 | 0.0 | 0.9 | 0.00 | 0.00 | 0.00 | 52 | 1008.2 |
| 20260904202954 | 94 | 47 | 0.9 | 0.9 | 0.00 | 0.00 | 0.00 | 51 | 1008.0 |
| 20260904202450 | 95 | 29 | 0.0 | 1.7 | 0.00 | 0.00 | 0.00 | 52 | 1008.3 |
| 20260904201946 | 95 | 43 | 0.9 | 4.3 | 0.00 | 0.00 | 0.00 | 52 | 1008.4 |
| 20260904201440 | 95 | 46 | 0.9 | 0.9 | 0.00 | 0.00 | 0.00 | 50 | 1008.5 |
| 20260904200936 | 95 | 32 | 0.0 | 0.9 | 0.00 | 0.00 | 0.00 | 50 | 1008.8 |
| 20260904200434 | 95 | 36 | 0.9 | 0.9 | 0.00 | 0.00 | 0.00 | 50 | 1008.7 |
| 20260904195930 | 95 | 35 | 0.9 | 0.9 | 0.00 | 0.00 | 0.00 | 51 | 1008.7 |
| 20260904195428 | 95 | 34 | 0.0 | 0.9 | 0.00 | 0.00 | 0.00 | 52 | 1008.7 |
| 20260904194927 | 95 | 38 | 0.0 | 1.7 | 0.00 | 0.00 | 0.00 | 52 | 1008.9 |
| 20260904194427 | 95 | 33 | 0.0 | 1.7 | 0.00 | 0.00 | 0.00 | 52 | 1008.9 |
| 20260904193922 | 95 | 39 | 0.9 | 1.7 | 0.00 | 0.00 | 0.00 | 52 | 1008.8 |
| 20260904193418 | 96 | 36 | 0.9 | 2.6 | 0.00 | 0.00 | 0.00 | 53 | 1009.2 |
| 20260904192914 | 95 | 22 | 0.0 | 2.6 | 0.00 | 0.00 | 0.00 | 53 | 1009.3 |
| 20260904192409 | 95 | 35 | 1.7 | 2.6 | 0.00 | 0.00 | 0.00 | 55 | 1009.4 |
| 20260904191905 | 96 | 55 | 1.7 | 4.3 | 0.00 | 0.00 | 0.00 | 54 | 1009.4 |
| 20260904191401 | 95 | 26 | 0.0 | 2.6 | 0.00 | 0.00 | 0.00 | 55 | 1009.3 |
| 20260904190857 | 95 | 30 | 0.0 | 1.7 | 0.00 | 0.00 | 0.00 | 56 | 1009.4 |
| 20260904190352 | 94 | 31 | 0.9 | 2.6 | 0.00 | 0.00 | 0.00 | 55 | 1009.6 |
| 20260904185849 | 94 | 31 | 1.7 | 2.6 | 0.00 | 0.00 | 0.00 | 56 | 1009.6 |
| 20260904185344 | 94 | 31 | 0.9 | 4.3 | 0.00 | 0.00 | 0.00 | 56 | 1009.7 |
| 20260904184844 | 94 | 32 | 0.0 | 6.1 | 0.00 | 0.00 | 0.00 | 56 | 1010.0 |
| 20260904184339 | 93 | 31 | 0.0 | 1.7 | 0.00 | 0.00 | 0.00 | 56 | 1010.1 |
| 20260904183834 | 93 | 43 | 0.9 | 2.6 | 0.00 | 0.00 | 0.00 | 56 | 1010.0 |
| 20260904183329 | 92 | 26 | 0.9 | 1.7 | 0.00 | 0.00 | 0.00 | 56 | 1009.9 |
| 20260904182824 | 92 | 56 | 1.7 | 1.7 | 0.00 | 0.00 | 0.00 | 56 | 1010.0 |
| 20260904182319 | 92 | 47 | 1.7 | 2.6 | 0.00 | 0.00 | 0.00 | 56 | 1010.0 |
| 20260904181815 | 92 | 40 | 0.9 | 1.7 | 0.00 | 0.00 | 0.00 | 56 | 1010.5 |
| 20260904181315 | 92 | 34 | 0.9 | 5.2 | 0.00 | 0.00 | 0.00 | 56 | 1010.0 |
| 20260904180810 | 92 | 28 | 0.9 | 1.7 | 0.00 | 0.00 | 0.00 | 56 | 1010.1 |
| 20260904180305 | 92 | 36 | 0.0 | 1.7 | 0.00 | 0.00 | 0.00 | 57 | 1010.1 |
| 20260904175804 | 91 | 33 | 0.0 | 1.7 | 0.00 | 0.00 | 0.00 | 57 | 1010.4 |
| 20260904175305 | 91 | 32 | 0.0 | 1.7 | 0.00 | 0.00 | 0.00 | 57 | 1010.1 |
| 20260904174758 | 91 | 27 | 0.9 | 1.7 | 0.00 | 0.00 | 0.00 | 56 | 1010.4 |
| 20260904174254 | 91 | 25 | 1.7 | 1.7 | 0.00 | 0.00 | 0.00 | 57 | 1010.5 |
| 20260904173749 | 90 | 27 | 0.0 | 1.7 | 0.00 | 0.00 | 0.00 | 57 | 1010.5 |
| 20260904173244 | 90 | 52 | 0.9 | 0.9 | 0.00 | 0.00 | 0.00 | 59 | 1010.5 |
| 20260904172741 | 90 | 22 | 0.9 | 0.9 | 0.00 | 0.00 | 0.00 | 60 | 1010.6 |
| 20260904172239 | 89 | 29 | 0.0 | 0.9 | 0.00 | 0.00 | 0.00 | 61 | 1010.5 |
| 20260904171734 | 89 | 51 | 1.7 | 1.7 | 0.00 | 0.00 | 0.00 | 62 | 1010.7 |
| 20260904171229 | 88 | 25 | 0.0 | 1.7 | 0.00 | 0.00 | 0.00 | 62 | 1010.6 |
| 20260904170726 | 89 | 35 | 0.9 | 1.7 | 0.00 | 0.00 | 0.00 | 62 | 1010.9 |
| 20260904170221 | 88 | 9 | 0.9 | 1.7 | 0.00 | 0.00 | 0.00 | 65 | 1010.8 |
| 20260904165720 | 88 | 37 | 0.0 | 1.7 | 0.00 | 0.00 | 0.00 | 65 | 1010.9 |
| 20260904165215 | 88 | 41 | 0.9 | 1.7 | 0.00 | 0.00 | 0.00 | 65 | 1010.8 |
| 20260904164709 | 88 | 39 | 0.9 | 1.7 | 0.00 | 0.00 | 0.00 | 65 | 1010.9 |
| 20260904164210 | 88 | 47 | 1.7 | 2.6 | 0.00 | 0.00 | 0.00 | 65 | 1011.2 |
| 20260904163706 | 88 | 56 | 1.7 | 1.7 | 0.00 | 0.00 | 0.00 | 66 | 1011.3 |
| 20260904163201 | 87 | 38 | 0.0 | 0.9 | 0.00 | 0.00 | 0.00 | 69 | 1011.4 |
| 20260904162700 | 87 | 18 | 0.9 | 1.7 | 0.00 | 0.00 | 0.00 | 70 | 1011.3 |
| 20260904162155 | 86 | 25 | 0.0 | 1.7 | 0.00 | 0.00 | 0.00 | 70 | 1011.5 |
| 20260904161651 | 86 | 32 | 0.0 | 0.9 | 0.00 | 0.00 | 0.00 | 70 | 1011.4 |
| 20260904161146 | 86 | 14 | 0.9 | 1.7 | 0.00 | 0.00 | 0.00 | 69 | 1011.6 |
| 20260904160642 | 86 | 5 | 0.9 | 0.9 | 0.00 | 0.00 | 0.00 | 69 | 1011.5 |
| 20260904160137 | 86 | 20 | 0.9 | 0.9 | 0.00 | 0.00 | 0.00 | 69 | 1011.6 |
| 20260904155632 | 86 | 26 | 0.9 | 0.9 | 0.00 | 0.00 | 0.00 | 69 | 1011.6 |
| 20260904155126 | 86 | 22 | 0.9 | 0.9 | 0.00 | 0.00 | 0.00 | 70 | 1011.9 |
| 20260904154625 | 86 | 40 | 0.0 | 0.9 | 0.00 | 0.00 | 0.00 | 71 | 1011.6 |
| 20260904154125 | 85 | 39 | 0.9 | 0.9 | 0.00 | 0.00 | 0.00 | 70 | 1011.8 |
| 20260904153620 | 85 | 42 | 0.0 | 0.9 | 0.00 | 0.00 | 0.00 | 70 | 1011.9 |
| 20260904153115 | 85 | 36 | 0.9 | 0.9 | 0.00 | 0.00 | 0.00 | 68 | 1011.9 |
| 20260904152612 | 84 | 49 | 0.9 | 2.6 | 0.00 | 0.00 | 0.00 | 69 | 1011.9 |
| 20260904152107 | 84 | 38 | 0.0 | 1.7 | 0.00 | 0.00 | 0.00 | 71 | 1011.9 |
| 20260904151602 | 84 | 39 | 0.9 | 1.7 | 0.00 | 0.00 | 0.00 | 76 | 1011.9 |
| 20260904151101 | 83 | 49 | 0.0 | 1.7 | 0.00 | 0.00 | 0.00 | 77 | 1012.0 |
| 20260904150556 | 83 | 56 | 0.9 | 1.7 | 0.00 | 0.00 | 0.00 | 77 | 1012.0 |
| 20260904150050 | 83 | 56 | 1.7 | 1.7 | 0.00 | 0.00 | 0.00 | 79 | 1011.8 |
| 20260904145549 | 83 | 41 | 1.7 | 2.6 | 0.00 | 0.00 | 0.00 | 80 | 1011.9 |
| 20260904145045 | 82 | 38 | 0.9 | 1.7 | 0.00 | 0.00 | 0.00 | 81 | 1011.9 |
| 20260904144541 | 82 | 56 | 1.7 | 1.7 | 0.00 | 0.00 | 0.00 | 82 | 1011.7 |
| 20260904144037 | 82 | 35 | 0.0 | 0.9 | 0.00 | 0.00 | 0.00 | 83 | 1011.7 |
| 20260904143532 | 81 | 17 | 0.0 | 0.9 | 0.00 | 0.00 | 0.00 | 84 | 1011.7 |
| 20260904143029 | 81 | 4 | 0.9 | 0.9 | 0.00 | 0.00 | 0.00 | 84 | 1011.7 |
| 20260904142525 | 81 | 40 | 0.9 | 1.7 | 0.00 | 0.00 | 0.00 | 85 | 1011.7 |
| 20260904142020 | 80 | 29 | 0.0 | 0.9 | 0.00 | 0.00 | 0.00 | 86 | 1011.7 |
| 20260904141515 | 80 | 37 | 0.9 | 1.7 | 0.00 | 0.00 | 0.00 | 86 | 1011.4 |
| 20260904141011 | 79 | 25 | 0.0 | 0.0 | 0.00 | 0.00 | 0.00 | 86 | 1011.7 |
| 20260904140511 | 79 | 16 | 0.0 | 0.9 | 0.00 | 0.00 | 0.00 | 87 | 1011.7 |
| 20260904140011 | 79 | 25 | 0.0 | 0.0 | 0.00 | 0.00 | 0.00 | 87 | 1011.6 |